Retour au catalogue

STARLINK-31127

ActifCommunicationsVLEO
NORAD 58765·PAYLOAD·🇺🇸 United States

Lancé Jan 14, 2024 depuis Vandenberg Space Force Base

Loading…

Prochains Passages (prochaines 24 heures)

TLE

FraisSource: CelesTrak SupGP

Époque: Sep 15, 2026, 02:43 UTC

1 58765C 24011A   26258.11368056 -.00062467  00000+0 -18455-2 0  2581
2 58765  53.1580 213.0769 0001387  95.2104 223.2225 15.34422621    12

Suivez STARLINK-31127 en temps réel avec AllMySat

Download on the App Store